Hourly Data Report for September 03, 2019

QUALICUM BEACH AIRPORT
BRITISH COLUMBIA
Current Station Operator: ECCC - MSC

49°20'14.000" N
124°23'38.000" W
58.20 m
1026562
71766
VOQ

Download Data

Hourly Data (September 2019)
Hourly Data Report for September 3, 2019
TIME
LST
Temp Definition
°C
Dew Point Definition
°C
Rel Hum Definition
%
Precip. Amount Definition
mm

Wind Dir Definition
10's deg

Wind Spd Definition
km/h
Visibility Definition
km
Stn Press Definition
kPa
Hmdx Definition


Wind Chill Definition


Weather Definition


00:00 14.6 12.5 88 0.0 18 2   100.94     LegendNANA
01:00 14.2 12.6 90 0.0 25 2   100.95     LegendNANA
02:00 14.1 12.3 89 0.0 26 3   100.94     LegendNANA
03:00 13.8 12.2 90 0.0 27 2   100.92     LegendNANA
04:00 12.9 11.8 93 0.0 24 2   100.93     LegendNANA
05:00 12.5 11.2 92 0.0 25 1   100.93     LegendNANA
06:00 12.5 11.5 94 0.0 27 2   100.95     LegendNANA
07:00 14.5 12.5 88 0.0   0   100.97     LegendNANA
08:00 18.8 13.5 72 0.0 32 8   100.98     LegendNANA
09:00 19.8 13.7 68 0.0 32 5   100.99     LegendNANA
10:00 20.4 14.0 66 0.0 2 7   100.97     LegendNANA
11:00 22.6 14.3 59 0.0 5 5   100.94 26   LegendNANA
12:00 21.7 14.9 65 0.0 8 8   100.91 26   LegendNANA
13:00 21.2 14.2 64 0.0 10 10   100.89 25   LegendNANA
14:00 20.9 14.6 67 0.0 12 7   100.85 25   LegendNANA
15:00 22.7 14.9 62 0.0 15 6   100.80 27   LegendNANA
16:00 24.1 14.5 55 0.0 13 6   100.75 28   LegendNANA
17:00 22.8 14.8 61 0.0 5 4   100.75 27   LegendNANA
18:00 21.7 14.8 65 0.0 9 6   100.78 26   LegendNANA
19:00 19.6 14.8 74 0.0 30 2   100.80     LegendNANA
20:00 17.8 14.5 81 0.0 26 3   100.84     LegendNANA
21:00 16.4 13.9 86 0.0 0 1   100.84     LegendNANA
22:00 15.7 13.6 87 0.0 16 4   100.87     LegendNANA
23:00 16.7 13.5 81 0.0 30 4   100.90     LegendNANA

Notes on Data Quality.

Legend

  • E = Estimated
  • M = Missing
  • NA = Not Available*
  • [empty] = Indicates an unobserved value
Date modified: